FW6400 Weather Reports


time (UTC)temp
C
wind
direction
speed
KPH
gust
KPH
rain 1hr
cm
rain 24hr
cm
rain mn
cm
humidity
%
barometer
mb
20260506183045 16 1.6 6.4 0.00 0.00 0.00 93 1010.1
20260506181521 16 0.0 3.2 0.00 0.00 0.00 94 1010.1
20260506180101 16 0.0 3.2 0.00 0.00 0.00 92 1010.6
20260506174553 16 0.0 4.8 0.00 0.00 0.00 91 1010.6
20260506173014 16 1.6 6.4 0.00 0.00 0.00 90 1010.7
20260506171553 16 1.6 3.2 0.00 0.00 0.00 89 1010.7
20260506170116 16 0.0 4.8 0.00 0.00 0.00 88 1010.9
20260506164545 16 1.6 6.4 0.00 0.00 0.00 87 1011.2
20260506163004 17 1.6 6.4 0.00 0.00 0.00 86 1011.6
20260506161543 17 1.6 6.4 0.00 0.00 0.00 85 1011.7
20260506160025 17 1.6 6.4 0.00 0.00 0.00 86 1011.8
20260506154509 17 1.6 11.3 0.00 0.00 0.00 84 1011.9
20260506153040 17 1.6 6.4 0.00 0.00 0.00 84 1011.9
20260506151506 18 1.6 6.4 0.00 0.00 0.00 82 1011.9
20260506150011 18 1.6 6.4 0.00 0.00 0.00 83 1011.9
20260506144608 18 1.6 4.8 0.00 0.00 0.00 83 1012.2
20260506143045 18 1.6 8.0 0.00 0.00 0.00 83 1012.4
20260506141537 18 1.6 6.4 0.00 0.00 0.00 84 1012.4
20260506140022 17 0.0 4.8 0.00 0.00 0.00 86 1012.3
20260506134559 17 0.0 6.4 0.00 0.00 0.00 86 1012.4
20260506133043 17 0.0 6.4 0.00 0.00 0.00 87 1012.5
20260506131618 17 1.6 4.8 0.00 0.00 0.00 86 1012.7
20260506130058 17 1.6 8.0 0.00 0.00 0.00 87 1012.8
20260506124524 16 1.6 8.0 0.00 0.00 0.00 88 1012.8
20260506123057 16 1.6 6.4 0.00 0.00 0.00 89 1012.7
20260506121524 15 1.6 9.7 0.00 0.00 0.00 90 1012.7
20260506120002 15 0.0 4.8 0.00 0.00 0.00 91 1012.6
20260506114555 15 0.0 4.8 0.00 0.00 0.00 92 1012.5
20260506113035 15 1.6 4.8 0.00 0.00 0.00 93 1012.5
20260506111517 14 0.0 4.8 0.00 0.00 0.00 93 1012.7
20260506110105 14 1.6 4.8 0.00 0.00 0.00 94 1012.6
20260506104538 14 0.0 6.4 0.00 0.00 0.00 94 1012.5
20260506103009 13 0.0 4.8 0.00 0.00 0.00 94 1012.4
20260506101547 13 1.6 4.8 0.00 0.00 0.00 95 1012.4
20260506100030 13 1.6 12.9 0.00 0.00 0.00 95 1012.4
20260506094542 13 0.0 4.8 0.00 0.00 0.00 94 1012.2
20260506093025 13 0.0 6.4 0.00 0.00 0.00 94 1012.1
20260506091554 13 0.0 4.8 0.00 0.00 0.00 94 1012.5
20260506090043 13 0.0 6.4 0.00 0.00 0.00 94 1012.6
20260506084617 13 0.0 6.4 0.00 0.00 0.00 94 1012.8
20260506083050 13 0.0 4.8 0.00 0.00 0.00 94 1012.9
20260506081513 13 0.0 4.8 0.00 0.00 0.00 94 1012.7
20260506073003 14 0.0 14.5 0.00 0.00 0.00 93 1012.7
20260506071556 14 0.0 6.4 0.00 0.00 0.00 93 1012.8
20260506061554 14 0.0 8.0 0.00 0.00 0.00 91 1013.0
20260506050107 15 1.6 6.4 0.00 0.00 0.00 89 1013.3
20260506044547 15 0.0 9.7 0.00 0.00 0.00 89 1013.4
20260506043034 15 0.0 9.7 0.00 0.00 0.00 89 1013.2
20260506041505 15 1.6 9.7 0.00 0.00 0.00 88 1013.3
20260506040107 15 1.6 8.0 0.00 0.00 0.00 88 1013.2
20260506034538 15 0.0 8.0 0.00 0.00 0.00 88 1013.1
20260506033018 15 1.6 8.0 0.00 0.00 0.00 88 1013.4
20260506031552 15 1.6 6.4 0.00 0.00 0.00 87 1013.3
20260506030042 15 1.6 12.9 0.00 0.00 0.00 87 1013.3
20260506024510 15 1.6 9.7 0.00 0.00 0.00 86 1013.4
20260506023028 15 3.2 14.5 0.00 0.00 0.00 86 1013.3
20260506021514 15 3.2 11.3 0.00 0.00 0.00 86 1013.4
20260506014555 15 1.6 14.5 0.00 0.00 0.00 86 1013.3
20260506013015 15 4.8 12.9 0.00 0.00 0.00 86 1013.0
20260506011535 15 3.2 11.3 0.00 0.00 0.00 87 1013.1
20260506010055 15 1.6 6.4 0.00 0.00 0.00 87 1013.0
20260506004519 15 1.6 9.7 0.00 0.00 0.00 86 1012.8
20260506003005 15 1.6 12.9 0.00 0.00 0.00 86 1012.8
20260506001542 15 1.6 9.7 0.00 0.00 0.00 85 1012.8
20260506000020 16 1.6 8.0 0.00 0.00 0.00 83 1012.7
20260505234503 16 1.6 12.9 0.00 0.00 0.00 82 1012.6
20260505233050 16 3.2 9.7 0.00 0.00 0.00 80 1012.5
20260505231504 17 3.2 14.5 0.00 0.00 0.00 78 1012.4
20260505230051 17 3.2 12.9 0.00 0.00 0.00 77 1012.4
20260505224510 17 3.2 11.3 0.00 0.00 0.00 75 1012.2
20260505223108 18 3.2 9.7 0.00 0.00 0.00 74 1012.1
20260505221526 18 3.2 12.9 0.00 0.00 0.00 74 1012.0
20260505220009 18 1.6 9.7 0.00 0.00 0.00 74 1012.0
20260505214619 18 3.2 11.3 0.00 0.00 0.00 74 1011.8
20260505213040 18 3.2 14.5 0.00 0.00 0.00 74 1011.7
20260505211505 18 3.2 14.5 0.00 0.00 0.00 75 1011.5
20260505210058 18 4.8 11.3 0.00 0.00 0.00 73 1011.6
20260505204545 19 3.2 11.3 0.00 0.00 0.00 73 1011.6
20260505203005 20 3.2 20.9 0.00 0.00 0.00 72 1011.6
20260505201539 20 3.2 17.7 0.00 0.00 0.00 72 1011.8
20260505200018 20 4.8 19.3 0.00 0.00 0.00 72 1011.9
20260505194546 20 3.2 11.3 0.00 0.00 0.00 72 1012.0
20260505193022 19 3.2 11.3 0.00 0.00 0.00 73 1012.2
20260505191506 20 3.2 8.0 0.00 0.00 0.00 72 1012.2
20260505190029 20 3.2 8.0 0.00 0.00 0.00 73 1012.5
20260505184513 20 3.2 16.1 0.00 0.00 0.00 72 1012.6